{"data":{"norad_id":55370,"epoch":"2026-09-20T19:05:24.785664Z","epoch_age_seconds":71133,"freshness":"FRESH","line1":"1 55370U 23013AR  26263.79542576  .00000050  00000+0  11329-4 0  9997","line2":"2 55370  43.0025 299.5543 0001276 270.5068  89.5637 15.27576578201304","mean_motion":15.27576578,"eccentricity":0.0001276,"inclination_deg":43.0025,"raan_deg":299.5543,"arg_perigee_deg":270.5068,"mean_anomaly_deg":89.5637,"bstar":1.1329e-5,"rev_number":20130,"period_min":94.266959885267,"perigee_km":482.1838541045,"apogee_km":483.93483141117,"semimajor_km":6861.1963427578,"source":"CELESTRAK","updated_at":"2026-09-21T09:00:33.209103Z"}}